This is the latest recevied weather packets stored in our database for station/object OK1PMP-6. If no packets are shown the sender has not sent any weather packets the latest 10 day(s).
| Time | Temp. | Humidity | Pressure | Rain* | Wind** | Luminosity | Snow |
|---|---|---|---|---|---|---|---|
| 1777867986 | 10.56° C | 59% | 1017.2 hPa | 0 mm | - | 23 W/m² | - |
| 1777867086 | 10° C | 60% | 1017.1 hPa | 0 mm | - | 11 W/m² | - |
| 1777866186 | 10° C | 60% | 1017.3 hPa | 0 mm | - | 5 W/m² | - |
| 1777865286 | 10.56° C | 57% | 1017.2 hPa | 0 mm | - | 2 W/m² | - |
| 1777864387 | 11.11° C | 57% | 1017.2 hPa | 0 mm | - | 0 W/m² | - |
| 1777863487 | 11.67° C | 54% | 1017.2 hPa | 0 mm | - | 0 W/m² | - |
| 1777862586 | 12.22° C | 54% | 1017 hPa | 0 mm | - | 0 W/m² | - |
| 1777861685 | 12.22° C | 54% | 1016.9 hPa | 0 mm | - | 0 W/m² | - |
| 1777860786 | 12.22° C | 54% | 1017.2 hPa | 0 mm | - | 0 W/m² | - |
| 1777859887 | 12.78° C | 54% | 1017.2 hPa | 0 mm | - | 0 W/m² | - |
| 1777858983 | 12.78° C | 52% | 1017.1 hPa | 0 mm | - | 0 W/m² | - |
| 1777858095 | 12.78° C | 52% | 1017.1 hPa | 0 mm | - | 0 W/m² | - |
| 1777857211 | 12.78° C | 52% | 1016.9 hPa | 0 mm | - | 0 W/m² | - |
| 1777856356 | 12.78° C | 52% | 1016.9 hPa | 0 mm | - | 0 W/m² | - |
| 1777855386 | 12.78° C | 53% | 1017 hPa | 0 mm | - | 0 W/m² | - |
| 1777854492 | 12.78° C | 53% | 1016.9 hPa | 0 mm | - | 0 W/m² | - |
| 1777853627 | 13.33° C | 53% | 1016.9 hPa | 0 mm | - | 0 W/m² | - |
| 1777852687 | 13.33° C | 53% | 1016.7 hPa | 0 mm | - | 0 W/m² | - |
| 1777851785 | 13.33° C | 52% | 1016.6 hPa | 0 mm | - | 0 W/m² | - |
| 1777850886 | 13.33° C | 52% | 1016.6 hPa | 0 mm | - | 0 W/m² | - |
| 1777849986 | 13.89° C | 51% | 1016.9 hPa | 0 mm | - | 0 W/m² | - |
| 1777849086 | 13.89° C | 51% | 1016.9 hPa | 0 mm | - | 0 W/m² | - |
| 1777848186 | 14.44° C | 50% | 1016.9 hPa | 0 mm | - | 0 W/m² | - |
| 1777847286 | 15° C | 49% | 1016.9 hPa | 0 mm | - | 0 W/m² | - |
| 1777846385 | 15° C | 49% | 1016.8 hPa | 0 mm | - | 0 W/m² | - |
* Rain latest hour (hover to see other rain measurements)
** Current wind speed in m/s (hover to see current wind gust speed)